STARLINK-11468, 62221

Orbit data source: Space-Track

STARLINK-11468, 62221 is a payload satellite owned by SpaceX/Seattle (US) in LEO that was launched on Thu, 05 Dec 2024 UTC via an FALCON 9 launch vehicle from the Air Force Western Test Range (AFWTR). Payloads include a variety of satellites, spacecraft, and rockets equipped with specific instruments for various scientific and technological missions. These include communications satellites like Starlink; space stations such as the ISS; scientific satellites like the Hubble; Earth observation satellites from companies like Planet Labs, Umbra, and HawkEye 360; GPS; miniature CubeSats for education and research; and military/defense satellites.

Loading next visibility...
STARLINK-11468 details
Identifier
62221, 2024-231D
Orbit
LEO
Last TLE update18 hours ago
Origin
Flag of USSpaceX/Seattle (US)
ManufacturerSpaceX/Seattle
MissionOperational spacecraft
Bus & MotorSTARLINK V2M, Unknown motor
Mass730 kg wet, ~700 kg dry
Launch date (UTC)
2024-12-05 (2 months ago)
Launch vehicle
FALCON 9
Launch site
Air Force Western Test Range (AFWTR)
Object type
Payload
Rocket body
Debris
Shape & HBRUnknown
Radar Cross SectionLarge (>1 m²)

Expand to show TLE details & history

TLE from 18 hours ago
0 STARLINK-11468
1 62221U 24231D   25025.09907587  .00003111  00000-0  30531-4 0  9996
2 62221  53.1589 315.7750 0001520  74.8479 285.2707 15.69711286  9186
Epoch: 2025-01-25T02:22Z
Definitive object data (Epoch: 2025-01-25T02:22:40.155Z)
Latitude-0°
Longitude155.45493°
Altitude360.368 km
Speed7.694 km/s
True Right ascension21h 03m 05s
True Declination0° 00' 00"
Sunlit
Object was in daylight at TLE epoch
Visualization TLE readout
Latitude6.1625°
Longitude156.29455°
Altitude359.674 km
Speed7.695 km/s
Apparent Right ascension18h 55m 56s
Apparent Declination-55° 09' 51"
Sunlit
Object is in daylight
Visualization observer readout
Local Sidereal Time22:05:58
Azimuth205.652° SW
Elevation-13.34°
Doppler factor1
Orbital elements
Apogee altitude361.008 km
Perigee altitude358.96 km
Semi-major axis6,738.121 km
Eccentricity0.000152
Inclination53.1589°
RAAN315.775°
Arg. of periapsis74.8479°
True anomaly285.2539°
Mean anomaly285.2707°
Eccentric anomaly285.2623°
Mean motion3.92405 °/min
BSTAR0.000030531
Orbital period91.74 mins
Loading maneuver chart data...
Loading historical data...
Loading historical data...
Loading historical data...
Loading historical data...
Loading historical data...
Loading historical data...
Loading historical data...

STARLINK-11468 Visibility forecast

Observer location: undefined°, undefined

Span
Click to sort rows by Start time (UTC) header in descending order
Start Az.
Max El. time (UTC)
Max El. Az.
Max El.
End time (UTC)
End Az.
4 mins2025-01-25 22:27:49.229Z266.583° W2025-01-25 22:28:49.229Z300.587° NW32.136°2025-01-25 22:31:49.229Z36.529° NE
|